TimeCST,TemperatureF,Dew PointF,Humidity,Sea Level PressureIn,VisibilityMPH,Wind Direction,Wind SpeedMPH,Gust SpeedMPH,PrecipitationIn,Events,Conditions,WindDirDegrees,DateUTC
12:15 AM,50.0,44.6,82,30.14,10.0,Calm,Calm,-,N/A,,Clear,0,2012-11-20 06:15:00
12:35 AM,50.0,46.4,87,30.14,10.0,Calm,Calm,-,N/A,,Clear,0,2012-11-20 06:35:00
12:55 AM,50.0,46.4,87,30.14,10.0,Calm,Calm,-,N/A,,Clear,0,2012-11-20 06:55:00
1:15 AM,50.0,46.4,87,30.14,10.0,Calm,Calm,-,N/A,,Clear,0,2012-11-20 07:15:00
1:35 AM,46.4,44.6,93,30.14,7.0,Calm,Calm,-,N/A,,Clear,0,2012-11-20 07:35:00
1:55 AM,46.4,44.6,93,30.14,7.0,Calm,Calm,-,N/A,,Clear,0,2012-11-20 07:55:00
2:15 AM,46.4,44.6,93,30.14,7.0,Calm,Calm,-,N/A,,Clear,0,2012-11-20 08:15:00
2:35 AM,46.4,42.8,87,30.15,7.0,Calm,Calm,-,N/A,,Clear,0,2012-11-20 08:35:00
6:15 AM,44.6,42.8,93,30.18,2.5,Calm,Calm,-,N/A,,Clear,0,2012-11-20 12:15:00
6:35 AM,44.6,42.8,93,30.18,1.8,Calm,Calm,-,N/A,,Mist,0,2012-11-20 12:35:00
6:55 AM,42.8,41.0,93,30.18,5.0,Calm,Calm,-,N/A,,Clear,0,2012-11-20 12:55:00
7:15 AM,42.8,41.0,93,30.18,5.0,Calm,Calm,-,N/A,,Clear,0,2012-11-20 13:15:00
7:35 AM,42.8,41.0,93,30.18,5.0,SW,3.5,-,N/A,,Clear,230,2012-11-20 13:35:00
7:55 AM,44.6,42.8,93,30.18,5.0,Calm,Calm,-,N/A,,Clear,0,2012-11-20 13:55:00
8:15 AM,46.4,44.6,93,30.19,5.0,Calm,Calm,-,N/A,,Clear,0,2012-11-20 14:15:00
8:35 AM,50.0,46.4,87,30.20,7.0,Calm,Calm,-,N/A,,Clear,0,2012-11-20 14:35:00
8:55 AM,53.6,48.2,82,30.21,10.0,Calm,Calm,-,N/A,,Clear,0,2012-11-20 14:55:00
9:15 AM,55.4,50.0,82,30.21,10.0,West,3.5,-,N/A,,Clear,260,2012-11-20 15:15:00
9:35 AM,59.0,50.0,72,30.21,10.0,West,5.8,-,N/A,,Clear,270,2012-11-20 15:35:00
9:55 AM,62.6,51.8,68,30.22,10.0,WNW,5.8,-,N/A,,Clear,290,2012-11-20 15:55:00
10:15 AM,62.6,51.8,68,30.22,10.0,WNW,3.5,-,N/A,,Clear,300,2012-11-20 16:15:00
10:35 AM,64.4,53.6,68,30.22,10.0,West,3.5,-,N/A,,Clear,280,2012-11-20 16:35:00
10:55 AM,68.0,53.6,60,30.22,10.0,NNW,3.5,-,N/A,,Clear,330,2012-11-20 16:55:00
11:15 AM,69.8,53.6,56,30.21,10.0,NNE,3.5,-,N/A,,Clear,20,2012-11-20 17:15:00
11:35 AM,69.8,53.6,56,30.20,10.0,North,3.5,-,N/A,,Clear,350,2012-11-20 17:35:00
11:55 AM,71.6,51.8,50,30.19,10.0,ENE,4.6,-,N/A,,Clear,60,2012-11-20 17:55:00
12:15 PM,71.6,51.8,50,30.19,10.0,NNE,4.6,-,N/A,,Clear,30,2012-11-20 18:15:00
12:35 PM,71.6,50.0,46,30.18,10.0,NNE,3.5,-,N/A,,Clear,30,2012-11-20 18:35:00
12:55 PM,73.4,50.0,44,30.17,10.0,NE,4.6,-,N/A,,Clear,40,2012-11-20 18:55:00
1:15 PM,73.4,46.4,38,30.17,10.0,NNE,4.6,-,N/A,,Clear,20,2012-11-20 19:15:00
1:35 PM,73.4,44.6,36,30.16,10.0,NNE,4.6,-,N/A,,Clear,30,2012-11-20 19:35:00
1:55 PM,75.2,46.4,36,30.15,10.0,NNE,4.6,-,N/A,,Clear,30,2012-11-20 19:55:00
2:15 PM,75.2,44.6,34,30.15,10.0,North,5.8,-,N/A,,Clear,350,2012-11-20 20:15:00
2:35 PM,75.2,42.8,31,30.14,10.0,Calm,Calm,-,N/A,,Clear,0,2012-11-20 20:35:00
2:55 PM,75.2,42.8,31,30.14,10.0,North,4.6,-,N/A,,Clear,360,2012-11-20 20:55:00
3:15 PM,77.0,44.6,32,30.14,10.0,Calm,Calm,-,N/A,,Clear,0,2012-11-20 21:15:00
3:35 PM,75.2,44.6,34,30.14,10.0,Calm,Calm,-,N/A,,Clear,0,2012-11-20 21:35:00
3:55 PM,75.2,44.6,34,30.15,10.0,NE,6.9,-,N/A,,Clear,40,2012-11-20 21:55:00
4:15 PM,73.4,42.8,33,30.15,10.0,NNE,5.8,-,N/A,,Clear,30,2012-11-20 22:15:00
4:35 PM,71.6,42.8,35,30.15,10.0,NNE,6.9,-,N/A,,Clear,30,2012-11-20 22:35:00
4:55 PM,69.8,42.8,38,30.15,10.0,NNE,6.9,-,N/A,,Clear,30,2012-11-20 22:55:00
5:15 PM,66.2,41.0,40,30.16,10.0,NNE,6.9,-,N/A,,Clear,20,2012-11-20 23:15:00
5:35 PM,62.6,42.8,48,30.17,10.0,NNE,6.9,-,N/A,,Clear,20,2012-11-20 23:35:00
5:55 PM,62.6,42.8,48,30.17,10.0,NNE,4.6,-,N/A,,Clear,30,2012-11-20 23:55:00
6:15 PM,62.6,42.8,48,30.17,10.0,NNE,5.8,-,N/A,,Clear,30,2012-11-21 00:15:00
6:35 PM,60.8,42.8,52,30.18,10.0,NNE,4.6,-,N/A,,Clear,30,2012-11-21 00:35:00
6:55 PM,59.0,42.8,55,30.18,10.0,NNE,5.8,-,N/A,,Clear,20,2012-11-21 00:55:00
7:15 PM,55.4,42.8,63,30.19,10.0,North,3.5,-,N/A,,Clear,350,2012-11-21 01:15:00
7:35 PM,57.2,42.8,59,30.19,10.0,NNE,3.5,-,N/A,,Clear,30,2012-11-21 01:35:00
7:55 PM,51.8,42.8,71,30.19,10.0,Calm,Calm,-,N/A,,Clear,0,2012-11-21 01:55:00
8:15 PM,55.4,42.8,63,30.20,10.0,Calm,Calm,-,N/A,,Clear,0,2012-11-21 02:15:00
8:35 PM,53.6,41.0,62,30.20,10.0,NNE,4.6,-,N/A,,Clear,20,2012-11-21 02:35:00
8:55 PM,50.0,41.0,71,30.20,10.0,NNE,5.8,-,N/A,,Clear,30,2012-11-21 02:55:00
9:15 PM,50.0,41.0,71,30.20,10.0,NNE,4.6,-,N/A,,Clear,30,2012-11-21 03:15:00
9:35 PM,50.0,42.8,76,30.21,10.0,Calm,Calm,-,N/A,,Clear,0,2012-11-21 03:35:00
9:55 PM,48.2,41.0,76,30.21,10.0,Calm,Calm,-,N/A,,Clear,0,2012-11-21 03:55:00
10:15 PM,50.0,42.8,76,30.22,10.0,Calm,Calm,-,N/A,,Clear,0,2012-11-21 04:15:00
10:35 PM,48.2,42.8,82,30.22,10.0,Calm,Calm,-,N/A,,Clear,0,2012-11-21 04:35:00
10:55 PM,46.4,41.0,81,30.22,10.0,Calm,Calm,-,N/A,,Clear,0,2012-11-21 04:55:00
11:15 PM,44.6,39.2,81,30.22,10.0,Calm,Calm,-,N/A,,Clear,0,2012-11-21 05:15:00
11:35 PM,44.6,41.0,87,30.22,10.0,Calm,Calm,-,N/A,,Clear,0,2012-11-21 05:35:00
11:55 PM,44.6,41.0,87,30.22,10.0,Calm,Calm,-,N/A,,Clear,0,2012-11-21 05:55:00